User: anonymous   Login
Location: ??
(35.5052°N, 139.7262°E)
Time: 09:31:34
(UTC+00:00)
Language:

CZ-2C R/B - Orbit

View from above orbital plane
View from above orbital plane
View from above satellite
View from above satellite

Ground track
Ground track

The orbit data is extracted from the following two-line orbital elements,

1 43173U 18011E   21265.67620055  .00005841  00000-0  15873-3 0  9991
2 43173  34.9778  33.9602 0138411 248.4485 110.1429 15.27632038204083
Epoch (UTC): 22 September 2021 16:13:43
Eccentricity: 0.0138411
inclination: 34.9778°
perigee height: 388 km
apogee height: 578 km
right ascension of ascending node: 33.9602°
argument of perigee: 248.4485°
revolutions per day: 15.27632038
mean anomaly at epoch: 110.1429°
orbit number at epoch: 20408

The dashed part of the orbit path shows where the satellite is in the earth's shadow,  

DLR